TimeCST,TemperatureF,Dew PointF,Humidity,Sea Level PressureIn,VisibilityMPH,Wind Direction,Wind SpeedMPH,Gust SpeedMPH,PrecipitationIn,Events,Conditions,WindDirDegrees,DateUTC
12:12 AM,-2.2,-9.4,71,30.02,10.0,Calm,Calm,-,N/A,,Scattered Clouds,0,2013-02-06 06:12:00
12:32 AM,-4.0,-11.2,71,30.02,10.0,Calm,Calm,-,N/A,,Scattered Clouds,0,2013-02-06 06:32:00
1:12 AM,-2.2,-9.4,71,30.03,10.0,Calm,Calm,-,N/A,,Overcast,0,2013-02-06 07:12:00
1:32 AM,-0.4,-7.6,72,30.03,10.0,Calm,Calm,-,N/A,,Overcast,0,2013-02-06 07:32:00
1:52 AM,-0.4,-7.6,72,30.02,10.0,Calm,Calm,-,N/A,,Overcast,0,2013-02-06 07:52:00
2:12 AM,1.4,-7.6,66,30.03,10.0,Calm,Calm,-,N/A,,Overcast,0,2013-02-06 08:12:00
2:32 AM,3.2,-5.8,66,30.04,10.0,Calm,Calm,-,N/A,,Overcast,0,2013-02-06 08:32:00
2:52 AM,3.2,-5.8,66,30.04,10.0,Calm,Calm,-,N/A,,Overcast,0,2013-02-06 08:52:00
3:12 AM,3.2,-5.8,66,30.03,10.0,Calm,Calm,-,N/A,,Overcast,0,2013-02-06 09:12:00
3:33 AM,3.2,-4.0,72,30.02,10.0,Calm,Calm,-,N/A,,Overcast,0,2013-02-06 09:33:00
3:52 AM,5.0,-4.0,66,30.02,10.0,Calm,Calm,-,N/A,,Overcast,0,2013-02-06 09:52:00
4:12 AM,5.0,-4.0,66,30.02,10.0,Calm,Calm,-,N/A,,Overcast,0,2013-02-06 10:12:00
4:32 AM,5.0,-4.0,66,30.01,10.0,Calm,Calm,-,N/A,,Overcast,0,2013-02-06 10:32:00
4:52 AM,5.0,-4.0,66,30.01,10.0,Calm,Calm,-,N/A,,Overcast,0,2013-02-06 10:52:00
5:12 AM,6.8,-4.0,61,30.02,10.0,Calm,Calm,-,N/A,,Overcast,0,2013-02-06 11:12:00
5:32 AM,6.8,-2.2,67,30.02,10.0,Calm,Calm,-,N/A,,Overcast,0,2013-02-06 11:32:00
5:52 AM,8.6,-2.2,62,30.02,10.0,Calm,Calm,-,N/A,,Overcast,0,2013-02-06 11:52:00
6:12 AM,8.6,-0.4,67,30.03,10.0,Calm,Calm,-,N/A,,Overcast,0,2013-02-06 12:12:00
6:32 AM,8.6,-0.4,67,30.02,10.0,Calm,Calm,-,N/A,,Overcast,0,2013-02-06 12:32:00
7:12 AM,8.6,-0.4,67,30.03,10.0,Calm,Calm,-,N/A,,Overcast,0,2013-02-06 13:12:00
7:32 AM,8.6,-0.4,67,30.04,10.0,Calm,Calm,-,N/A,,Overcast,0,2013-02-06 13:32:00
7:52 AM,8.6,-0.4,67,30.04,10.0,Calm,Calm,-,N/A,,Overcast,0,2013-02-06 13:52:00
8:12 AM,10.4,-0.4,62,30.03,10.0,Calm,Calm,-,N/A,,Overcast,0,2013-02-06 14:12:00
8:32 AM,12.2,-0.4,57,30.03,10.0,Calm,Calm,-,N/A,,Overcast,0,2013-02-06 14:32:00
8:52 AM,12.2,1.4,62,30.02,10.0,Calm,Calm,-,N/A,,Overcast,0,2013-02-06 14:52:00
9:12 AM,14.0,1.4,57,30.02,10.0,Calm,Calm,-,N/A,,Overcast,0,2013-02-06 15:12:00
9:32 AM,14.0,1.4,57,30.02,10.0,Calm,Calm,-,N/A,,Overcast,0,2013-02-06 15:32:00
9:52 AM,15.8,3.2,58,30.02,3.0,Calm,Calm,-,N/A,Snow,Light Snow,0,2013-02-06 15:52:00
10:12 AM,17.6,3.2,53,30.03,2.0,Calm,Calm,-,N/A,Snow,Light Snow,0,2013-02-06 16:12:00
10:32 AM,17.6,5.0,58,30.02,1.8,East,3.5,-,N/A,Snow,Light Snow,100,2013-02-06 16:32:00
10:52 AM,17.6,6.8,63,30.03,1.5,Calm,Calm,-,N/A,Snow,Light Snow,0,2013-02-06 16:52:00
11:12 AM,17.6,8.6,68,30.03,1.2,Calm,Calm,-,N/A,Snow,Light Snow,0,2013-02-06 17:12:00
11:32 AM,17.6,8.6,68,30.04,0.8,Calm,Calm,-,N/A,Snow,Light Snow,0,2013-02-06 17:32:00
11:52 AM,17.6,10.4,73,30.04,0.8,Calm,Calm,-,N/A,Snow,Light Snow,0,2013-02-06 17:52:00
12:12 PM,19.4,10.4,68,30.02,0.8,Calm,Calm,-,0.01,Snow,Light Snow,0,2013-02-06 18:12:00
12:32 PM,19.4,10.4,68,30.01,0.5,Calm,Calm,-,0.01,Snow,Snow,0,2013-02-06 18:32:00
12:52 PM,19.4,10.4,68,30.01,1.0,Calm,Calm,-,0.01,Snow,Light Snow,0,2013-02-06 18:52:00
1:12 PM,19.4,10.4,68,29.99,0.8,Calm,Calm,-,N/A,Snow,Light Snow,0,2013-02-06 19:12:00
1:32 PM,19.4,12.2,74,29.98,0.8,East,3.5,-,N/A,Snow,Light Snow,90,2013-02-06 19:32:00
1:52 PM,19.4,12.2,74,29.98,1.0,Calm,Calm,-,N/A,Snow,Light Snow,0,2013-02-06 19:52:00
2:12 PM,19.4,12.2,74,29.98,4.0,Calm,Calm,-,0.01,Snow,Light Snow,0,2013-02-06 20:12:00
2:32 PM,19.4,12.2,74,29.96,5.0,Calm,Calm,-,0.01,,Haze,0,2013-02-06 20:32:00
2:52 PM,19.4,12.2,74,29.95,5.0,Calm,Calm,-,0.01,,Haze,0,2013-02-06 20:52:00
3:12 PM,19.4,10.4,68,29.95,5.0,Calm,Calm,-,N/A,Snow,Light Snow,0,2013-02-06 21:12:00
3:32 PM,19.4,12.2,74,29.95,7.0,Calm,Calm,-,N/A,Snow,Light Snow,0,2013-02-06 21:32:00
3:52 PM,19.4,12.2,74,29.95,7.0,Calm,Calm,-,N/A,,Overcast,0,2013-02-06 21:52:00
4:12 PM,21.2,12.2,68,29.96,10.0,Calm,Calm,-,N/A,,Overcast,0,2013-02-06 22:12:00
4:32 PM,21.2,12.2,68,29.95,10.0,Calm,Calm,-,N/A,,Overcast,0,2013-02-06 22:32:00
4:52 PM,21.2,12.2,68,29.96,10.0,Calm,Calm,-,N/A,,Overcast,0,2013-02-06 22:52:00
5:12 PM,21.2,12.2,68,29.96,10.0,Calm,Calm,-,N/A,,Overcast,0,2013-02-06 23:12:00
5:32 PM,21.2,12.2,68,29.97,10.0,Calm,Calm,-,N/A,,Overcast,0,2013-02-06 23:32:00
5:52 PM,21.2,12.2,68,29.96,10.0,Calm,Calm,-,N/A,,Overcast,0,2013-02-06 23:52:00
6:12 PM,21.2,12.2,68,29.96,7.0,Calm,Calm,-,N/A,,Overcast,0,2013-02-07 00:12:00
6:32 PM,21.2,14.0,74,29.97,7.0,Calm,Calm,-,N/A,,Overcast,0,2013-02-07 00:32:00
7:12 PM,21.2,14.0,74,29.99,7.0,Calm,Calm,-,N/A,,Overcast,0,2013-02-07 01:12:00
7:32 PM,21.2,14.0,74,29.99,7.0,Calm,Calm,-,N/A,,Overcast,0,2013-02-07 01:32:00
7:52 PM,21.2,14.0,74,29.99,5.0,Calm,Calm,-,N/A,,Haze,0,2013-02-07 01:52:00
8:12 PM,21.2,14.0,74,29.99,5.0,Calm,Calm,-,N/A,,Haze,0,2013-02-07 02:12:00
8:32 PM,21.2,14.0,74,30.00,5.0,Calm,Calm,-,N/A,,Haze,0,2013-02-07 02:32:00
8:52 PM,21.2,14.0,74,30.01,7.0,Calm,Calm,-,N/A,,Overcast,0,2013-02-07 02:52:00
9:12 PM,21.2,14.0,74,30.01,7.0,Calm,Calm,-,N/A,,Overcast,0,2013-02-07 03:12:00
9:32 PM,21.2,14.0,74,30.01,7.0,Calm,Calm,-,N/A,,Overcast,0,2013-02-07 03:32:00
9:52 PM,21.2,14.0,74,30.01,7.0,Calm,Calm,-,N/A,,Overcast,0,2013-02-07 03:52:00
10:12 PM,19.4,14.0,80,30.02,7.0,Calm,Calm,-,N/A,,Overcast,0,2013-02-07 04:12:00
10:32 PM,21.2,14.0,74,30.02,10.0,Calm,Calm,-,N/A,,Overcast,0,2013-02-07 04:32:00
10:52 PM,21.2,14.0,74,30.02,10.0,Calm,Calm,-,N/A,,Overcast,0,2013-02-07 04:52:00
11:12 PM,21.2,14.0,74,30.02,10.0,Calm,Calm,-,N/A,,Overcast,0,2013-02-07 05:12:00
11:32 PM,21.2,14.0,74,30.03,10.0,Calm,Calm,-,N/A,,Overcast,0,2013-02-07 05:32:00
11:52 PM,21.2,14.0,74,30.04,10.0,Calm,Calm,-,N/A,,Overcast,0,2013-02-07 05:52:00